Location: Schommer Observatory
(40.5200°N, 74.4500°W)
Time: 04:55:55
(UTC-04:00)

Vanguard 2 - All Passes

Search period start: 23 May 2018 00:00
Search period end: 02 June 2018 00:00
Orbit: 552 x 2940 km, 32.9° (Epoch: 22 May)

Date Brightness Start Highest point End Pass type
(mag) Time Alt. Az. Time Alt. Az. Time Alt. Az.
23 May - 12:17:49 10° SSW 12:26:27 36° SE 12:39:16 10° E daylight
23 May - 14:24:34 10° WSW 14:36:15 61° SSE 14:53:11 10° E daylight
23 May - 16:33:36 10° W 16:48:04 63° S 17:05:39 10° ESE daylight
23 May - 18:44:29 10° W 18:59:55 44° SSW 19:15:23 10° SE daylight
23 May - 20:59:27 10° W 21:10:03 19° SW 21:19:49 10° S visible
24 May - 10:32:18 10° SSE 10:36:25 14° SE 10:41:23 10° ESE daylight
24 May - 12:35:07 10° SW 12:44:05 43° SSE 12:57:49 10° E daylight
24 May - 14:42:26 10° WSW 14:54:20 64° S 15:11:28 10° E daylight
24 May - 16:51:43 10° W 17:06:11 59° SSW 17:23:34 10° ESE daylight
24 May - 19:03:00 10° W 19:17:43 37° SSW 19:32:25 10° SSE daylight
24 May - 21:20:52 10° WSW 21:27:29 13° SW 21:33:48 10° SSW visible
25 May - 10:48:01 10° S 10:53:42 20° SE 11:01:20 10° E daylight
25 May - 12:52:38 10° SW 13:01:50 49° SSE 13:16:16 10° E daylight
25 May - 15:00:24 10° WSW 15:12:26 64° S 15:29:40 10° ESE daylight
25 May - 17:09:53 10° W 17:24:15 54° SSW 17:41:17 10° SE daylight
25 May - 19:21:47 10° W 19:35:26 30° SW 19:49:04 10° SSE daylight
26 May - 11:04:38 10° SSW 11:11:05 26° SE 11:20:26 10° E daylight
26 May - 13:10:18 10° WSW 13:19:43 55° SSE 13:34:37 10° E daylight
26 May - 15:18:23 10° W 15:30:34 63° S 15:47:48 10° ESE daylight
26 May - 17:28:07 10° W 17:42:16 48° SSW 17:58:48 10° SE daylight
26 May - 19:41:02 10° W 19:53:05 24° SW 20:05:10 10° S daylight
27 May - 11:21:41 10° SSW 11:28:36 33° SSE 11:39:09 10° E daylight
27 May - 13:28:06 10° WSW 13:37:41 59° S 13:52:56 10° E daylight
27 May - 15:36:26 10° W 15:48:42 60° S 16:05:49 10° ESE daylight
27 May - 17:46:30 10° W 18:00:13 41° SSW 18:16:02 10° SSE daylight
27 May - 20:01:07 10° WSW 20:10:42 17° SW 20:20:19 10° S daylight
28 May - 09:36:54 10° SSE 09:39:01 11° SE 09:41:23 10° ESE daylight
28 May - 11:39:02 10° SW 11:46:14 40° SSE 11:57:40 10° E daylight
28 May - 13:45:58 10° WSW 13:55:43 61° S 14:11:12 10° E daylight
28 May - 15:54:32 10° W 16:06:49 55° SSW 16:23:41 10° SE daylight
28 May - 18:05:04 10° W 18:18:06 34° SSW 18:32:54 10° SSE daylight
28 May - 20:23:39 10° WSW 20:28:18 11° SW 20:32:58 10° SSW daylight
29 May - 09:52:13 10° S 09:56:21 17° SE 10:01:44 10° ESE daylight
29 May - 11:56:36 10° SW 12:04:00 47° SSE 12:16:04 10° E daylight
29 May - 14:03:54 10° WSW 14:13:48 61° S 14:29:24 10° ESE daylight
29 May - 16:12:41 10° W 16:24:53 49° SSW 16:41:21 10° SE daylight
29 May - 18:23:57 10° W 18:35:56 27° SW 18:49:19 10° SSE daylight
30 May - 10:08:49 10° SSW 10:13:48 23° SE 10:20:49 10° E daylight
30 May - 12:14:18 10° WSW 12:21:52 52° SSE 12:34:24 10° E daylight
30 May - 14:21:53 10° W 14:31:54 59° S 14:47:31 10° ESE daylight
30 May - 16:30:56 10° W 16:42:55 43° SSW 16:58:45 10° SE daylight
30 May - 18:43:26 10° W 18:53:43 21° SW 19:04:59 10° S daylight
31 May - 10:25:56 10° SSW 10:31:21 30° SSE 10:39:30 10° E daylight
31 May - 12:32:06 10° WSW 12:39:49 56° S 12:52:41 10° E daylight
31 May - 14:39:54 10° W 14:50:00 55° S 15:05:29 10° ESE daylight
31 May - 16:49:21 10° W 17:00:55 36° SSW 17:15:49 10° SSE daylight
31 May - 19:04:10 10° WSW 19:11:31 14° SW 19:19:20 10° SSW daylight
01 Jun - 10:43:19 10° SW 10:49:01 37° SSE 10:57:58 10° E daylight
01 Jun - 12:49:58 10° WSW 12:57:50 57° S 13:10:55 10° ESE daylight
01 Jun - 14:57:59 10° W 15:08:05 49° SSW 15:23:17 10° SE daylight
01 Jun - 17:08:01 10° W 17:18:53 29° SSW 17:32:28 10° SSE daylight
